Regional Weather Roundup
Issued by NWS

Home | Current Version | Previous Version | Text Only | Print | Product List | Glossary On
Versions: 1 2 3 4 5 6 7 8 9 10 11 12 13 14 15 16 17 18 19 20 21 22 23 24 25 26 27 28 29 30 31 32 33 34 35 36 37 38 39 40 41 42 43 44 45 46 47 48 49 50
000
ASUS42 KFFC 271703
RWRGA
WEATHER ROUNDUP FOR GEORGIA
NATIONAL WEATHER SERVICE PEACHTREE CITY GA
100 PM EDT WED AUG 27 2014

NOTE: "FAIR" INDICATES FEW OR NO CLOUDS BELOW 12,000 FEET WITH NO
SIGNIFICANT WEATHER AND/OR OBSTRUCTIONS TO VISIBILITY.

* = USE WITH CAUTION. THE STATIONS MARKED WITH AN ASTERISK MAY NOT
REPORT WEATHER SUCH AS PRECIPITATION, FOG, OR THUNDER AND ARE NOT
QUALITY CONTROLLED BY NWS.

THE REMARK "TC" DENOTES TEMPERATURE READING IN DEGREES CELSIUS.

GAZ001>058-271800-
NORTH GEORGIA

CITY           SKY/WX    TMP DP  RH WIND       PRES   REMARKS
ATLANTA        MOSUNNY   82  61  48 E7        30.12F
ATHENS         SUNNY     84  59  42 CALM      30.11F
CHAMBLEE       SUNNY     82  59  45 CALM      30.12F
PEACHTREE CITY SUNNY     84  60  44 VRB5      30.12F
ROME           SUNNY     84  63  49 VRB3      30.11F
WEST ATLANTA   SUNNY     83  61  47 VRB3      30.11F
GAINESVILLE    SUNNY     81  61  50 SW6       30.15F
CARTERSVILLE   SUNNY     84  61  45 N5        30.12F


CITY           SKY/WX    TMP DP  RH WIND       PRES   REMARKS
DALTON*        MOSUNNY   81  64  57 CALM      30.12F
LAWRENCEVILLE* MOSUNNY   82  59  44 E6        30.12F
MARIETTA       MOSUNNY   83  62  49 VRB3      30.12F
KENNESAW*      MOSUNNY  N/A N/A N/A CALM      30.11F
$$

GAZ059>098-102>109-271800-
CENTRAL GEORGIA

CITY           SKY/WX    TMP DP  RH WIND       PRES   REMARKS
AUGUSTA-BUSH   SUNNY     85  58  39 MISG      30.06F
AUGUSTA-DANIEL SUNNY     86  57  37 N7        30.08F
COLUMBUS       SUNNY     87  56  34 NE7       30.08F
MACON          SUNNY     87  60  40 N9        30.07F
ROBINS AFB     SUNNY     86  62  43 VRB6      30.07F


CITY           SKY/WX    TMP DP  RH WIND       PRES   REMARKS
LAGRANGE*      MOSUNNY   89  66  45 E3        30.10F HX  91
SYLVANIA*      SUNNY     84  65  52 N6        30.06F
$$

GAZ099>101-110>166-271800-
SOUTH GEORGIA

CITY           SKY/WX    TMP DP  RH WIND       PRES   REMARKS
SAVANNAH       SUNNY     87  59  38 N10       30.04F
VALDOSTA       MOSUNNY   88  63  43 N9        30.04F
ALMA           SUNNY     86  61  42 N13G18    30.05F
ST SIMONS      SUNNY     84  63  49 NE13      30.03F
FT STEWART     SUNNY     86  60  40 N9G24     30.03F
ALBANY         MOSUNNY   88  64  44 VRB6      30.07F
HUNTER AFB     MOSUNNY   84  62  46 N12       30.02F
MOODY AFB      MOSUNNY   86  65  48 N10       30.05F
BRUNSWICK      SUNNY     86  61  42 NE7       30.04S


CITY           SKY/WX    TMP DP  RH WIND       PRES   REMARKS
BAINBRIDGE*    MOSUNNY   88  70  55 NW3       30.06S HX  92
MOULTRIE*      PTSUNNY   86  63  45 N7        30.06F
VIDALIA*         N/A     86  61  42 N9        30.05F
WAYCROSS*      SUNNY     89  65  45 NE12      30.04F HX  90
DOUGLAS*       SUNNY     88  59  37 N12       30.06F
$$



USA.gov is the U.S. government's official web portal to all federal, state and local government web resources and services.